STARLINK-1036, 44741

Orbit data source: Space-Track

STARLINK-1036, 44741 is a payload satellite owned by SpaceX/Seattle (US) in LEO that was launched on Mon, 11 Nov 2019 UTC via an FALCON 9 launch vehicle from the Air Force Eastern Test Range (AFETR). Payload-class satellites include a variety of spacecraft equipped with specific instruments for various scientific and technological missions. These include communications satellites like Starlink; space stations such as the ISS; scientific satellites like the Hubble; Earth observation satellites from companies like Planet Labs, Umbra, and HawkEye 360; GPS; miniature CubeSats for education and research; and military/defense satellites.

Loading next visibility...
Identifier
44741, 2019-074AE
Orbit
LEO
Country
Flag of USUS
Related business
Manufacturer
SpaceX/Seattle
Mission
Partially operational Commercial Communications
Bus & Motor
STARLINK, Unknown motor
Mass
260 kg wet, ~248 kg dry
Launch date (UTC)
2019-11-11 (6 years ago)
Launch vehicle
FALCON 9
Launch site
Air Force Eastern Test Range (AFETR)
Object type
Payload
Rocket body
Debris
Shape & HBR
Box + 1 Pan, 10.1 m
Radar Cross Section
13.562 m², Large (>1 m²)

Expand to show TLE details & history
Last TLE update: 18 hours ago

TLE from 18 hours ago
0 STARLINK-1036
1 44741U 19074AE  26072.00002315  .00082966  00000-0  11364-2 0  9997
2 44741  53.0492 172.5153 0003739 308.7308 319.4082 15.56695095  5924
Epoch: 2026-03-13T00:00Z
TLE epoch observation values (Epoch: 2026-03-13T00:00:02.000Z)
Latitude
-53.16177°
Longitude
-91.26767°
Altitude
413.767 km
Speed
7.664 km/s
True Right ascension
05h 17m 31s
True Declination
-52° 59' 18"
Sunlit
Object was in daylight at epoch
Visualization orbit readout
Latitude
Unknown
Longitude
Unknown
Altitude
Unknown
Speed
Unknown
Apparent Right ascension
Unknown
Apparent Declination
Unknown
Sunlit
N/A
Visualization observer readout
Local Sidereal Time
22:22:28
Azimuth
Unknown
Elevation
Unknown
Doppler factor
Unknown
Orbital elements
Apogee altitude
400.04 km
Perigee altitude
394.974 km
Semi-major axis
6,775.644 km
Eccentricity
0.00037
Inclination
53.0492°
RAAN
172.5153°
Arg. of periapsis
308.7308°
True anomaly
319.38031°
Mean anomaly
319.4082°
Eccentric anomaly
319.39426°
Mean motion
3.8915 °/min
Orbital period
92.51 mins
BSTAR
0.0011364
Loading maneuver chart data...
Computing Atmospheric mass density...

Documentation

Showing up to 5 results
|